Content
SEND FEEDBACK

Daily
Averages
Monthly
Summary
United States of America

CHICAGO, ILLINOIS


Home > North America > United States > Illinois
Elevation: 674 feet     Latitude: 41 59N     Longitude: 087 54W

WEATHER
 
SELECT A DAY
Number of Records: 194,730;   Date Range: 7/8/95 - 7/7/14
 
SHARE

PRINT THIS DATA

[ ← Previous Day ]
WEATHER ALMANAC - FEBRUARY 12, 2013
[ Next Day → ]
[ °C ]   °F
Weather ElementAverageHighLow
Temperature25.4 °F28 °F (3:52 pm)21 °F (11:52 pm)
Dewpoint18.7 °F19.9 °F (12:52 pm)17.1 °F (5:52 am)
Humidity76.1 %89 % (9:52 pm)72 % (1:52 am)
Barometer30.06 in30.13 in (7:52 am)29.94 in (11:52 pm)
Wind Speed7.9 mph13.8 mph (2:52 am)
Wind Gust20.7 mph (2:52 am)
Weather ElementAverage
Visibility9.7 mi
Wind DirectionSW (227.1 °)

Weather ElementTotal
Precipitation---
Heating Degree Days40.5 (Base 65)
Averaged from 24 records on February 12, 2013
WEATHER CONDITIONS BREAKOUT
WIND DIRECTION BREAKOUT
WEATHER BY HOUR - FEBRUARY 12, 2013
[ °C ]   °F
Local TimeTemperatureDewpointHumidityBarometerVisibilityWind DirectionWind SpeedGust SpeedPrecipitationEventsConditions
1:52 AM27.0 °F19.0 °F72 %30.08 in10.0 miWNW (290°)11.5 mphOvercast
2:52 AM27.0 °F19.0 °F72 %30.09 in10.0 miWest (260°)13.8 mph20.7 mphOvercast
3:52 AM26.1 °F19.0 °F75 %30.08 in10.0 miWest (280°)12.7 mphOvercast
4:52 AM25.0 °F18.0 °F75 %30.10 in10.0 miWest (280°)9.2 mphOvercast
5:52 AM25.0 °F17.1 °F72 %30.11 in10.0 miWNW (290°)11.5 mphOvercast
6:52 AM25.0 °F17.1 °F72 %30.11 in10.0 miWNW (290°)11.5 mphOvercast
7:52 AM25.0 °F17.1 °F72 %30.13 in10.0 miWest (280°)9.2 mphOvercast
8:52 AM25.0 °F18.0 °F75 %30.12 in10.0 miWest (260°)8.1 mphOvercast
9:52 AM26.1 °F19.0 °F75 %30.13 in10.0 miWest (260°)11.5 mphOvercast
10:52 AM26.1 °F19.0 °F75 %30.13 in10.0 miWest (260°)8.1 mphOvercast
11:52 AM27.0 °F19.0 °F72 %30.10 in10.0 miWest (280°)8.1 mphOvercast
12:52 PM27.0 °F19.9 °F75 %30.05 in10.0 miWest (280°)9.2 mphOvercast
1:52 PM27.0 °F19.9 °F75 %30.05 in10.0 miWest (280°)9.2 mphOvercast
2:52 PM27.0 °F19.9 °F75 %30.06 in10.0 miWest (260°)10.4 mphOvercast
3:52 PM28.0 °F19.9 °F72 %30.04 in10.0 miSW (230°)10.4 mphOvercast
4:52 PM27.0 °F19.0 °F72 %30.03 in10.0 miWSW (240°)8.1 mphMostly Cloudy
5:06 PM26.6 °F19.4 °F74 %30.00 in10.0 miWSW (240°)5.8 mphScattered Clouds
5:52 PM27.0 °F19.0 °F72 %30.03 in10.0 miWSW (250°)4.6 mphClear
6:52 PM27.0 °F19.0 °F72 %30.01 in10.0 miCalmClear
7:52 PM21.9 °F18.0 °F85 %30.00 in10.0 miSSE (160°)3.5 mphClear
8:52 PM23.0 °F18.0 °F81 %29.99 in9.0 miCalmClear
9:52 PM21.9 °F19.0 °F89 %29.98 in8.0 miSouth (170°)4.6 mphClear
10:52 PM21.9 °F19.0 °F89 %29.96 in8.0 miSSE (150°)3.5 mphClear
11:52 PM21.0 °F18.0 °F88 %29.94 in7.0 miSSE (160°)4.6 mphClear
Hourly data recorded from KPWK, located miles away from Chicago, Illinois







STORIES FROM OUR PARTNERS